Regional Weather Roundup
Issued by NWS

Home | Current Version | Previous Version | Graphics & Text | Print | Product List | Glossary On
Versions: 1 2 3 4 5 6 7 8 9 10 11 12 13 14 15 16 17 18 19 20 21 22 23 24 25 26 27 28 29 30 31 32 33 34 35 36 37 38 39 40 41 42 43 44 45 46 47 48 49 50
000
ASUS45 KTFX 231004
RWRMT
MONTANA HOURLY WEATHER ROUNDUP
NATIONAL WEATHER SERVICE GREAT FALLS MT
404 AM MDT WED APR 23 2014

NOTE: "FAIR" INDICATES FEW OR NO CLOUDS BELOW 12000 FEET WITH NO
SIGNIFICANT WEATHER AND/OR OBSTRUCTIONS TO VISIBILITY.

* THESE STATIONS ARE NOT UNDER NWS QUALITY CONTROL. THEY DO NOT
   REPORT WEATHER SUCH AS PRECIPITATION OR FOG.

MTZ001>007-043-231100-
WEST OF THE DIVIDE
CITY           SKY/WX    TMP DP  RH WIND       PRES   REMARKS
KALISPELL      CLOUDY    36  27  70 S6        29.73R WCI  31
MISSOULA       CLOUDY    37  28  70 NW8       29.80S WCI  31
BUTTE          CLOUDY    30  25  82 NW13      29.72F WCI  20
MULLAN PASS    CLOUDY    25  21  85 VRB7G18   29.75R WCI  17
* ESSEX        N/A       34  31  89 S1         N/A
* LINCOLN      N/A       34  25  70 SW7G16     N/A   WCI  28
* LOOKOUT PASS N/A       31  24  75 NE4        N/A
* POLSON       N/A       35  26  70 SE2        N/A
* SEELEY LAKE  N/A       34  28  79 N2G9       N/A
* THOMP F APT  MOCLDY    29  29 100 NW6G24     N/A   WCI  23
* YAAK HILL    N/A       36  30  79 N1         N/A
$$

MTZ008-052>055-231100-
SOUTHWEST MONTANA
CITY           SKY/WX    TMP DP  RH WIND       PRES   REMARKS
BOZEMAN        CLOUDY    36  30  79 NW10      29.69R WCI  29
DILLON         LGT SNOW  30  28  92 SE7       29.72S WCI  23
W YELLOWSTONE  N/A       31  30  96 SW6G15     N/A   WCI  25
* THREE FORKS  CLOUDY    39  36  89 W20G28     N/A   WCI  29
* BOULDER HILL N/A       31  15  51 N9G17      N/A   WCI  23
* MONIDA PASS  N/A       23  23 100 NW26G34    N/A   WCI   6
* RAYNOLDS PAS N/A       29  13  51 SE12       N/A   WCI  19
* WHITEHALL    N/A       36  29  76 W11G23     N/A   WCI  28
* WISE RIVER   N/A       29  25  85 W7G20      N/A   WCI  22
$$

MTZ009>010-012-014-046-048-049-054-231100-
EAST SLOPES AND CENTRAL MONTANA
CITY           SKY/WX    TMP DP  RH WIND       PRES   REMARKS
CUT BANK       CLOUDY    37  25  62 W25       29.55R WCI  25
GREAT FALLS    CLOUDY    37  32  82 SW17      29.58S WCI  27
HELENA         CLOUDY    37  27  67 W20G26    29.68R WCI  27
MALMSTROM AFB  CLOUDY    41  34  76 SW20G25   29.56R
* CONRAD       CLOUDY    41  27  58 W20G30     N/A
* DEARBORN     N/A       42  26  53 S8G16      N/A
* EAST GLACIER N/A       34  19  54 W24G33     N/A   WCI  22
* MONARCH      N/A       33  29  85 W13G19     N/A   WCI  24
* PENDROY      N/A       37  22  55 W21G29     N/A   WCI  26
* ROGERS PASS  N/A       29  24  82 SE16G25    N/A   WCI  17
* SAINT MARY   N/A       36  25  64 SW12G31    N/A   WCI  28
* SWEET GRASS  N/A       40  30  68 SW32G45    N/A   WCI  28
$$

MTZ011-013-016-021-035-040-045-047-050-051-231100-
NORTH CENTRAL MONTANA
CITY           SKY/WX    TMP DP  RH WIND       PRES   REMARKS
HAVRE          CLOUDY    45  43  93 SW15      29.51R
LEWISTOWN      LGT RAIN  39  37  93 W18G26    29.54R WCI  30
* CHESTER      N/A       43  36  76 W9G17      N/A
* DENTON       N/A       41  39  93 W12G18     N/A
* GEYSER       N/A       38  34  86 W20G29     N/A   WCI  28
* JUDITH GAP   N/A       38  38 100 VRB23G29    N/A   WCI  27
* LOMA         N/A       45  41  86 SW7        N/A
$$

MTZ017>020-022>027-061-062-231100-
NORTHEAST MONTANA
CITY           SKY/WX    TMP DP  RH WIND       PRES   REMARKS
GLASGOW        CLOUDY    54  32  43 SE9       29.38R
GLENDIVE       CLOUDY    54  34  47 E14G24    29.37F
JORDAN         CLOUDY    52  45  77 W18G26    29.37R
SIDNEY         CLOUDY    54  37  53 S12G22    29.41F
WOLF POINT     CLOUDY    55  32  42 E16       29.36F
* BEAVER HILL  N/A       51  33  50 E29G42     N/A
* CIRCLE       N/A       53  34  49 E10G16     N/A
* LINDSAY DVD  N/A       48  33  56 E16        N/A
* NAVAJO       N/A       49  32  52 E16G27     N/A
* SACO         N/A       53  32  45 E10        N/A
$$

MTZ028>042-056>058-231100-
SOUTHCENTRAL AND SOUTHEAST MONTANA
CITY           SKY/WX    TMP DP  RH WIND       PRES   REMARKS
BAKER          CLOUDY    52  37  57 E14       29.37F
BILLINGS       LGT RAIN  46  37  71 NW13      29.50R
LIVINGSTON     LGT SNOW  37 N/A N/A W16       29.60R WCI  28
MILES CITY     CLOUDY    50  37  61 NE9       29.31R
* LAUREL APT   CLOUDY    48  32  54 W9         N/A
* ROUNDUP APT  CLOUDY    48  37  66 W9         N/A
* HYSHAM       N/A       49  43  80 NW14G20    N/A
* LAME DEER    N/A       51  42  71 SW23G35    N/A
* REED POINT   N/A       45  34  65 W26G38     N/A
* ROSCOE HILL  N/A       46  20  36 W2G8       N/A
$$

REGIONAL REPORTS...DAKOTAS
CITY           SKY/WX    TMP DP  RH WIND       PRES   REMARKS
WILLISTON      CLOUDY    52  36  55 SE21G36   29.45F
DICKINSON      CLOUDY    48  37  66 E22G33    29.46F
CROSBY         CLEAR     45  34  65 E20G30    29.54F
TIOGA          MOCLDY    48  36  63 SE24G33   29.57F
WATFORD CITY   FAIR      50  39  66 SE33G44   29.44F
BISMARCK       CLOUDY    52  39  61 E21G31    29.65F
GRAND FORKS    MOCLDY    41  28  60 SE13      29.94S
FARGO          CLOUDY    48  28  46 SE15      29.93F
RAPID CITY     CLOUDY    54  43  67 S9        29.45F
$$

REGIONAL REPORTS...WYOMING/IDAHO/WASHINGTON
CITY           SKY/WX    TMP DP  RH WIND       PRES   REMARKS
GILLETTE       CLOUDY    55  37  51 SW21      29.45S
SHERIDAN       CLOUDY    57  37  47 NW10      29.41R
CODY           CLOUDY    46  25  44 W10       29.51S
YELLOWSTONE LA PTCLDY    27  21  78 W9G18     29.66F WCI  18
SALMON         CLOUDY    37  25  62 CALM      29.81S
MULLAN PASS    CLOUDY    25  21  85 VRB7G18   29.75S WCI  17
SPOKANE        FAIR      36  28  73 S13       29.83R WCI  27

$$




USA.gov is the U.S. government's official web portal to all federal, state and local government web resources and services.